Voltar ao catálogo

HORN-R

AtivoCiênciaSSO
NORAD 69507·PAYLOAD·🇯🇵 Japan

Lançado Jun 12, 2026 de Tanegashima Space Center

Loading…

Próximas Passagens (próximas 24 horas)

TLE

AtualizadoSource: Space-Track

Época: Sep 14, 2026, 19:19 UTC

1 69507U 26132F   26257.80555151  .00001923  00000-0  91712-4 0  9992
2 69507  97.6835 321.7527 0002449 327.5963  32.5120 15.20352598 14297

Acompanhe HORN-R em tempo real com AllMySat

Download on the App Store